"Sample Date","Sample Time","Sample Value","Units","Flow Rate","Sample Interval","Number Channels","Micron Size 0","Counts/Channel 0","Micron Size 1","Counts/Channel 1","Micron Size 2","Counts/Channel 2","Micron Size 3","Counts/Channel 3","Micron Size 4","Counts/Channel 4","Micron Size 5","Counts/Channel 5","Micron Size 6","Counts/Channel 6","Micron Size 7","Counts/Channel 7","Micron Size 8","Counts/Channel 8","Micron Size 9","Counts/Channel 9","Micron Size 10","Counts/Channel 10","Micron Size 11","Counts/Channel 11","Micron Size 12","Counts/Channel 12","Micron Size 13","Counts/Channel 13","Micron Size 14","Counts/Channel 14","Micron Size 15","Counts/Channel 15","Micron Size 16","Counts/Channel 16","Micron Size 17","Counts/Channel 17","Micron Size 18","Counts/Channel 18","Micron Size 19","Counts/Channel 19","Micron Size 20","Counts/Channel 20","Micron Size 21","Counts/Channel 21","Micron Size 22","Counts/Channel 22","Micron Size 23","Counts/Channel 23","Micron Size 24","Counts/Channel 24","Micron Size 25","Counts/Channel 25","Micron Size 26","Counts/Channel 26","Micron Size 27","Counts/Channel 27","Micron Size 28","Counts/Channel 28","Micron Size 29","Counts/Channel 29","Micron Size 30","Counts/Channel 30","Micron Size 31","Counts/Channel 31"
"03/07/08","23:38:02",8803.000,"cc",28294.463,6.00,6,0.100,6762.000,0.200,1926.000,0.300,105.000,0.500,10.000,1.000,0,5.000,0
"03/07/08","23:38:08",9021.000,"cc",28325.147,6.00,6,0.100,6833.000,0.200,2013.000,0.300,145.000,0.500,29.000,1.000,1.000,5.000,0
"03/07/08","23:38:14",9354.000,"cc",28311.207,6.00,6,0.100,7061.000,0.200,2097.000,0.300,169.000,0.500,27.000,1.000,0,5.000,0
"03/07/08","23:38:20",9368.000,"cc",28345.408,6.00,6,0.100,7024.000,0.200,2151.000,0.300,162.000,0.500,30.000,1.000,1.000,5.000,0
"03/07/08","23:38:26",9091.000,"cc",28308.063,6.00,6,0.100,6943.000,0.200,1987.000,0.300,143.000,0.500,17.000,1.000,1.000,5.000,0
"03/07/08","23:38:32",9417.000,"cc",28352.459,6.00,6,0.100,7101.000,0.200,2145.000,0.300,146.000,0.500,24.000,1.000,1.000,5.000,0
"03/07/08","23:38:38",9353.000,"cc",28342.231,6.00,6,0.100,7051.000,0.200,2147.000,0.300,130.000,0.500,24.000,1.000,1.000,5.000,0
"03/07/08","23:38:44",9142.000,"cc",28306.033,6.00,6,0.100,7022.000,0.200,1984.000,0.300,125.000,0.500,10.000,1.000,1.000,5.000,0
"03/07/08","23:38:50",9157.000,"cc",28333.080,6.00,6,0.100,6969.000,0.200,2036.000,0.300,130.000,0.500,20.000,1.000,2.000,5.000,0
"03/07/08","23:38:56",9150.000,"cc",28288.621,6.00,6,0.100,7020.000,0.200,1965.000,0.300,139.000,0.500,22.000,1.000,4.000,5.000,0
"03/07/08","23:39:02",8205.000,"cc",28331.035,6.00,6,0.100,6325.000,0.200,1766.000,0.300,100.000,0.500,13.000,1.000,1.000,5.000,0
"03/07/08","23:39:08",8856.000,"cc",28384.539,6.00,6,0.100,6783.000,0.200,1936.000,0.300,122.000,0.500,14.000,1.000,1.000,5.000,0
"03/07/08","23:39:14",9127.000,"cc",28260.877,6.00,6,0.100,7008.000,0.200,1976.000,0.300,119.000,0.500,23.000,1.000,1.000,5.000,0
"03/07/08","23:39:20",8934.000,"cc",28295.357,6.00,6,0.100,6773.000,0.200,2003.000,0.300,139.000,0.500,18.000,1.000,1.000,5.000,0
"03/07/08","23:39:26",9192.000,"cc",28249.043,6.00,6,0.100,7020.000,0.200,2013.000,0.300,136.000,0.500,21.000,1.000,2.000,5.000,0
"03/07/08","23:39:32",8376.000,"cc",28394.457,6.00,6,0.100,6447.000,0.200,1772.000,0.300,123.000,0.500,32.000,1.000,2.000,5.000,0
"03/07/08","23:39:38",8753.000,"cc",28322.606,6.00,6,0.100,6601.000,0.200,1956.000,0.300,170.000,0.500,22.000,1.000,4.000,5.000,0
"03/07/08","23:39:44",9420.000,"cc",28307.643,6.00,6,0.100,7097.000,0.200,2131.000,0.300,173.000,0.500,17.000,1.000,2.000,5.000,0
"03/07/08","23:39:50",9599.000,"cc",28318.807,6.00,6,0.100,7253.000,0.200,2175.000,0.300,154.000,0.500,17.000,1.000,0,5.000,0
"03/07/08","23:39:56",9763.000,"cc",28339.227,6.00,6,0.100,7455.000,0.200,2153.000,0.300,142.000,0.500,13.000,1.000,0,5.000,0
"03/07/08","23:40:02",9930.000,"cc",28235.414,6.00,6,0.100,7460.000,0.200,2278.000,0.300,165.000,0.500,25.000,1.000,2.000,5.000,0
"03/07/08","23:40:08",9274.000,"cc",28300.791,6.00,6,0.100,6993.000,0.200,2100.000,0.300,161.000,0.500,19.000,1.000,1.000,5.000,0
"03/07/08","23:40:14",9498.000,"cc",28366.234,6.00,6,0.100,7280.000,0.200,2052.000,0.300,148.000,0.500,17.000,1.000,1.000,5.000,0
"03/07/08","23:40:20",8631.000,"cc",28365.170,6.00,6,0.100,6512.000,0.200,1968.000,0.300,129.000,0.500,22.000,1.000,0,5.000,0
"03/07/08","23:40:26",8585.000,"cc",28282.402,6.00,6,0.100,6587.000,0.200,1862.000,0.300,121.000,0.500,14.000,1.000,1.000,5.000,0
"03/07/08","23:40:32",8110.000,"cc",28301.891,6.00,6,0.100,6215.000,0.200,1770.000,0.300,112.000,0.500,12.000,1.000,1.000,5.000,0
"03/07/08","23:40:38",9771.000,"cc",28240.484,6.00,6,0.100,7400.000,0.200,2214.000,0.300,152.000,0.500,5.000,1.000,0,5.000,0
"03/07/08","23:40:44",9796.000,"cc",28297.244,6.00,6,0.100,7406.000,0.200,2191.000,0.300,174.000,0.500,24.000,1.000,1.000,5.000,0
"03/07/08","23:40:50",9974.000,"cc",28360.836,6.00,6,0.100,7492.000,0.200,2282.000,0.300,166.000,0.500,30.000,1.000,4.000,5.000,0
"03/07/08","23:40:56",10294.000,"cc",28332.428,6.00,6,0.100,7738.000,0.200,2325.000,0.300,177.000,0.500,51.000,1.000,3.000,5.000,0
"03/07/08","23:41:02",10166.000,"cc",28320.543,6.00,6,0.100,7544.000,0.200,2382.000,0.300,197.000,0.500,42.000,1.000,1.000,5.000,0
"03/07/08","23:41:08",11018.000,"cc",28331.402,6.00,6,0.100,8334.000,0.200,2389.000,0.300,234.000,0.500,56.000,1.000,5.000,5.000,0
"03/07/08","23:41:14",30375.000,"cc",28362.760,6.00,6,0.100,26028.000,0.200,3971.000,0.300,293.000,0.500,79.000,1.000,4.000,5.000,0
"03/07/08","23:41:20",25916.000,"cc",28276.502,6.00,6,0.100,21837.000,0.200,3690.000,0.300,304.000,0.500,74.000,1.000,11.000,5.000,0
"03/07/08","23:41:26",23287.000,"cc",28371.131,6.00,6,0.100,19304.000,0.200,3569.000,0.300,309.000,0.500,90.000,1.000,15.000,5.000,0
"03/07/08","23:41:32",47220.000,"cc",28237.506,6.00,6,0.100,41027.000,0.200,5567.000,0.300,474.000,0.500,134.000,1.000,18.000,5.000,0
"03/07/08","23:41:38",33916.000,"cc",28370.717,6.00,6,0.100,29172.000,0.200,4323.000,0.300,310.000,0.500,105.000,1.000,6.000,5.000,0
"03/07/08","23:41:44",37148.000,"cc",28315.160,6.00,6,0.100,32078.000,0.200,4609.000,0.300,380.000,0.500,73.000,1.000,8.000,5.000,0
"03/07/08","23:41:50",57062.000,"cc",28345.846,6.00,6,0.100,49775.000,0.200,6572.000,0.300,523.000,0.500,165.000,1.000,27.000,5.000,0
"03/07/08","23:41:56",114084.000,"cc",28346.246,6.00,6,0.100,101502.000,0.200,11660.000,0.300,709.000,0.500,186.000,1.000,27.000,5.000,0
"03/07/08","23:42:02",104635.000,"cc",28379.828,6.00,6,0.100,92957.000,0.200,10864.000,0.300,656.000,0.500,139.000,1.000,19.000,5.000,0
"03/07/08","23:42:08",68398.000,"cc",28210.525,6.00,6,0.100,60568.000,0.200,7286.000,0.300,438.000,0.500,92.000,1.000,14.000,5.000,0
"03/07/08","23:42:14",85847.000,"cc",28288.688,6.00,6,0.100,76181.000,0.200,9101.000,0.300,470.000,0.500,81.000,1.000,14.000,5.000,0
"03/07/08","23:42:20",106849.000,"cc",28293.100,6.00,6,0.100,94362.000,0.200,11441.000,0.300,773.000,0.500,228.000,1.000,45.000,5.000,0
"03/07/08","23:42:26",107079.000,"cc",28338.555,6.00,6,0.100,95227.000,0.200,11139.000,0.300,574.000,0.500,119.000,1.000,20.000,5.000,0
"03/07/08","23:42:32",84409.000,"cc",28331.316,6.00,6,0.100,74602.000,0.200,9059.000,0.300,565.000,0.500,159.000,1.000,24.000,5.000,0
"03/07/08","23:42:38",34717.000,"cc",28299.498,6.00,6,0.100,30090.000,0.200,4231.000,0.300,309.000,0.500,75.000,1.000,12.000,5.000,0
"03/07/08","23:42:44",21596.000,"cc",28276.227,6.00,6,0.100,18089.000,0.200,3199.000,0.300,254.000,0.500,53.000,1.000,1.000,5.000,0
"03/07/08","23:42:50",26486.000,"cc",28303.398,6.00,6,0.100,22192.000,0.200,3750.000,0.300,406.000,0.500,105.000,1.000,33.000,5.000,0
"03/07/08","23:42:56",16098.000,"cc",28355.066,6.00,6,0.100,12953.000,0.200,2749.000,0.300,298.000,0.500,84.000,1.000,14.000,5.000,0
"03/07/08","23:43:02",18797.000,"cc",28304.881,6.00,6,0.100,15199.000,0.200,3154.000,0.300,336.000,0.500,92.000,1.000,16.000,5.000,0
"03/07/08","23:43:08",18085.000,"cc",28351.754,6.00,6,0.100,14629.000,0.200,3061.000,0.300,297.000,0.500,87.000,1.000,11.000,5.000,0
"03/07/08","23:43:14",19536.000,"cc",28364.291,6.00,6,0.100,15818.000,0.200,3203.000,0.300,370.000,0.500,122.000,1.000,23.000,5.000,0
"03/07/08","23:43:20",22579.000,"cc",28326.508,5.00,6,0.100,18840.000,0.200,3321.000,0.300,328.000,0.500,76.000,1.000,14.000,5.000,0
"03/07/08","23:58:12",10605.000,"cc",28766.313,6.00,6,0.100,8397.000,0.200,2068.000,0.300,124.000,0.500,16.000,1.000,0,5.000,0
"03/07/08","23:58:15",4497.000,"cc",28726.885,2.00,6,0.100,3506.000,0.200,935.000,0.300,51.000,0.500,5.000,1.000,0,5.000,0
"03/07/08","23:59:08",10052.000,"cc",28326.020,6.00,6,0.100,7895.000,0.200,2034.000,0.300,113.000,0.500,10.000,1.000,0,5.000,0
"03/07/08","23:59:14",10618.000,"cc",28389.791,6.00,6,0.100,8329.000,0.200,2157.000,0.300,115.000,0.500,16.000,1.000,1.000,5.000,0
"03/07/08","23:59:20",10224.000,"cc",28357.584,6.00,6,0.100,7931.000,0.200,2162.000,0.300,115.000,0.500,13.000,1.000,3.000,5.000,0
"03/07/08","23:59:24",6119.000,"cc",28285.291,3.00,6,0.100,4763.000,0.200,1286.000,0.300,67.000,0.500,2.000,1.000,1.000,5.000,0
"03/07/08","23:59:35",10228.000,"cc",28182.211,6.00,6,0.100,8067.000,0.200,2063.000,0.300,91.000,0.500,4.000,1.000,3.000,5.000,0
"03/07/08","23:59:41",10400.000,"cc",28444.588,6.00,6,0.100,8075.000,0.200,2201.000,0.300,120.000,0.500,4.000,1.000,0,5.000,0
"03/07/08","23:59:47",10412.000,"cc",28334.965,6.00,6,0.100,8114.000,0.200,2174.000,0.300,116.000,0.500,8.000,1.000,0,5.000,0
"03/07/08","23:59:53",10425.000,"cc",28297.703,6.00,6,0.100,8142.000,0.200,2173.000,0.300,104.000,0.500,6.000,1.000,0,5.000,0
"03/07/08","23:59:59",10567.000,"cc",28309.869,6.00,6,0.100,8271.000,0.200,2200.000,0.300,93.000,0.500,3.000,1.000,0,5.000,0
